Change the Weather History Date:

Saturday, September 14, 2013

  Actual Average Record
Temperature  
Mean Temperature 47 °F -  
Max Temperature 53 °F 51 °F 62 °F (1997)
Min Temperature 41 °F 40 °F 33 °F (2000)
Degree Days  
Heating Degree Days 18    
Moisture  
Dew Point 42 °F    
Average Humidity 77    
Maximum Humidity 87    
Minimum Humidity 67    
Precipitation  
Precipitation 0.00 in - - ()
Sea Level Pressure  
Sea Level Pressure 30.07 in    
Wind  
Wind Speed 7 mph (NW)    
Max Wind Speed 21 mph    
Max Gust Speed 23 mph    
Visibility 7 miles    
Events      
Averages and records for this station are not official NWS values.
T = Trace of Precipitation, MM = Missing Value Source: NWS Daily Summary

Daily Weather History Graph

Daily Weather History Graph

Search for Another Location

Airport or City:

Trip Planner

Search our weather history database for the weather conditions in past years. The results will help you decide how hot, cold, wet, or windy it might be!

Date:

Astronomy

Sep. 14, 2013 Rise Set
Actual Time 8:04 AM AKDT 8:54 PM AKDT
Civil Twilight 7:25 AM AKDT 9:32 PM AKDT
Nautical Twilight 6:38 AM AKDT 10:19 PM AKDT
Astronomical Twilight 5:46 AM AKDT 11:10 PM AKDT
Moon 6:27 PM AKDT (9/14) 1:59 AM AKDT (9/14)
Length of Visible Light 14h 07m
Length of Day
12h 49m
Waxing Gibbous, 74% of the Moon is Illuminated
Sep 14
Waxing Gibbous
Sep 19
Full
Sep 26
Last Quarter
Oct 4
New
Oct 11
First Quarter

Hourly Weather History & Observations

Time (AKDT) Temp. Windchill Dew Point Humidity Pressure Visibility Wind Dir Wind Speed Gust Speed Precip Events Conditions
12:16 AM 50.0 °F - 44.6 °F 82% 29.96 in 10.0 mi Calm Calm - N/A   Overcast
12:36 AM 51.8 °F - 44.6 °F 76% 29.96 in 10.0 mi NW 3.5 mph - N/A   Overcast
12:56 AM 50.0 °F - 42.8 °F 76% 29.96 in 10.0 mi NW 4.6 mph - N/A   Mostly Cloudy
1:16 AM 48.2 °F - 42.8 °F 82% 29.97 in 10.0 mi North 4.6 mph - N/A   Scattered Clouds
1:36 AM 46.4 °F - 41.0 °F 81% 29.97 in 0.5 mi Calm Calm - N/A   Unknown
1:56 AM 46.4 °F 44.3 °F 41.0 °F 81% 29.97 in 1.0 mi North 4.6 mph - N/A   Mostly Cloudy
2:16 AM 48.2 °F - 42.8 °F 82% 29.98 in 7.0 mi North 4.6 mph - N/A   Partly Cloudy
2:36 AM 48.2 °F - 42.8 °F 82% 29.98 in 7.0 mi NNE 4.6 mph - N/A   Mostly Cloudy
2:56 AM 48.2 °F - 44.6 °F 87% 29.99 in 1.5 mi North 3.5 mph - N/A   Scattered Clouds
3:16 AM 46.4 °F 45.2 °F 42.8 °F 87% 29.99 in 0.5 mi North 3.5 mph - N/A   Mostly Cloudy
3:36 AM 48.2 °F - 42.8 °F 82% 30.00 in 0.8 mi North 4.6 mph - N/A   Unknown
3:56 AM 46.4 °F 44.3 °F 41.0 °F 81% 30.00 in 1.0 mi North 4.6 mph - N/A   Clear
4:16 AM 46.4 °F 44.3 °F 41.0 °F 81% 30.00 in 0.8 mi North 4.6 mph - N/A   Unknown
4:36 AM 46.4 °F 44.3 °F 41.0 °F 81% 30.01 in 0.5 mi North 4.6 mph - N/A   Mostly Cloudy
4:56 AM 44.6 °F 40.7 °F 39.2 °F 81% 30.01 in 0.5 mi North 6.9 mph - N/A   Overcast
5:16 AM 46.4 °F 42.9 °F 42.8 °F 87% 30.02 in 7.0 mi North 6.9 mph - N/A   Overcast
5:36 AM 46.4 °F 42.9 °F 42.8 °F 87% 30.02 in 2.0 mi North 6.9 mph - N/A   Mostly Cloudy
5:56 AM 46.4 °F 41.9 °F 42.8 °F 87% 30.03 in 4.0 mi NNW 9.2 mph - N/A   Clear
6:16 AM 46.4 °F 41.9 °F 41.0 °F 81% 30.02 in 2.5 mi NNW 9.2 mph - N/A   Clear
6:36 AM 44.6 °F 41.4 °F 39.2 °F 81% 30.03 in 1.8 mi North 5.8 mph - N/A   Clear
6:56 AM 44.6 °F 41.4 °F 39.2 °F 81% 30.03 in 7.0 mi North 5.8 mph - N/A   Clear
7:16 AM 44.6 °F 41.4 °F 39.2 °F 81% 30.04 in 1.8 mi North 5.8 mph - N/A   Clear
7:36 AM 44.6 °F 43.1 °F 39.2 °F 81% 30.04 in 0.5 mi East 3.5 mph - N/A   Unknown
7:56 AM 41.0 °F - 35.6 °F 81% 30.04 in 0.5 mi Calm Calm - N/A   Overcast
8:16 AM 42.8 °F - 37.4 °F 81% 30.05 in 0.2 mi Calm Calm - N/A   Overcast
8:36 AM 42.8 °F - 37.4 °F 81% 30.05 in 0.2 mi Calm Calm - N/A   Overcast
8:56 AM 42.8 °F - 37.4 °F 81% 30.06 in 0.5 mi Calm Calm - N/A   Overcast
9:16 AM 42.8 °F 41.1 °F 37.4 °F 81% 30.06 in 0.8 mi SSE 3.5 mph - N/A   Overcast
9:36 AM 44.6 °F - 39.2 °F 81% 30.06 in 0.5 mi Calm Calm - N/A   Overcast
9:56 AM 44.6 °F - 39.2 °F 81% 30.07 in 1.5 mi Calm Calm - N/A   Overcast
10:16 AM 48.2 °F - 42.8 °F 82% 30.07 in 10.0 mi Calm Calm - N/A   Overcast
10:36 AM 50.0 °F - 46.4 °F 87% 30.07 in 10.0 mi NNW 6.9 mph - N/A   Overcast
10:56 AM 51.8 °F - 44.6 °F 76% 30.07 in 10.0 mi NNW 9.2 mph - N/A   Overcast
11:16 AM 51.8 °F - 44.6 °F 76% 30.07 in 10.0 mi NNW 8.1 mph - N/A   Overcast
11:36 AM 51.8 °F - 46.4 °F 82% 30.07 in 10.0 mi NNW 11.5 mph - N/A   Mostly Cloudy
11:56 AM 53.6 °F - 46.4 °F 77% 30.08 in 10.0 mi NNW 13.8 mph - N/A   Scattered Clouds
12:16 PM 53.6 °F - 44.6 °F 72% 30.08 in 10.0 mi NNW 12.7 mph - N/A   Partly Cloudy
12:36 PM 53.6 °F - 44.6 °F 72% 30.08 in 10.0 mi NNW 12.7 mph - N/A   Clear
12:56 PM 53.6 °F - 44.6 °F 72% 30.08 in 10.0 mi NNW 12.7 mph - N/A   Clear
1:16 PM 53.6 °F - 44.6 °F 72% 30.08 in 10.0 mi NW 15.0 mph - N/A   Clear
1:36 PM 53.6 °F - 44.6 °F 72% 30.09 in 10.0 mi NW 13.8 mph - N/A   Clear
1:56 PM 53.6 °F - 44.6 °F 72% 30.09 in 10.0 mi NW 16.1 mph - N/A   Clear
2:16 PM 53.6 °F - 44.6 °F 72% 30.09 in 10.0 mi NW 13.8 mph - N/A   Clear
2:36 PM 53.6 °F - 44.6 °F 72% 30.09 in 10.0 mi NW 16.1 mph - N/A   Clear
2:56 PM 53.6 °F - 42.8 °F 67% 30.09 in 10.0 mi NW 18.4 mph 21.9 mph N/A   Clear
3:16 PM 53.6 °F - 42.8 °F 67% 30.10 in 10.0 mi NW 17.3 mph 21.9 mph N/A   Clear
3:36 PM 53.6 °F - 42.8 °F 67% 30.10 in 10.0 mi NW 19.6 mph - N/A   Clear
3:56 PM 53.6 °F - 42.8 °F 67% 30.10 in 10.0 mi WNW 18.4 mph - N/A   Clear
4:16 PM 53.6 °F - 42.8 °F 67% 30.10 in 10.0 mi NW 18.4 mph 21.9 mph N/A   Clear
4:36 PM 53.6 °F - 42.8 °F 67% 30.11 in 10.0 mi NW 16.1 mph 20.7 mph N/A   Scattered Clouds
4:56 PM 53.6 °F - 44.6 °F 72% 30.11 in 10.0 mi WNW 16.1 mph - N/A   Overcast
5:16 PM 53.6 °F - 44.6 °F 72% 30.11 in 10.0 mi NW 17.3 mph - N/A   Overcast
5:36 PM 53.6 °F - 44.6 °F 72% 30.11 in 10.0 mi WNW 15.0 mph - N/A   Overcast
5:56 PM 53.6 °F - 44.6 °F 72% 30.11 in 10.0 mi WNW 18.4 mph 23.0 mph N/A   Overcast
6:16 PM 53.6 °F - 44.6 °F 72% 30.11 in 10.0 mi WNW 18.4 mph - N/A   Mostly Cloudy
6:36 PM 53.6 °F - 42.8 °F 67% 30.11 in 10.0 mi WNW 20.7 mph - N/A   Partly Cloudy
6:56 PM 51.8 °F - 42.8 °F 71% 30.12 in 10.0 mi WNW 18.4 mph 23.0 mph N/A   Clear
7:16 PM 51.8 °F - 42.8 °F 71% 30.12 in 10.0 mi WNW 18.4 mph 21.9 mph N/A   Clear
7:36 PM 51.8 °F - 42.8 °F 71% 30.13 in 10.0 mi WNW 15.0 mph - N/A   Partly Cloudy
7:56 PM 51.8 °F - 42.8 °F 71% 30.13 in 10.0 mi WNW 13.8 mph - N/A   Scattered Clouds
8:16 PM 50.0 °F - 42.8 °F 76% 30.13 in 10.0 mi WNW 15.0 mph - N/A   Mostly Cloudy
8:36 PM 50.0 °F - 42.8 °F 76% 30.13 in 10.0 mi WNW 15.0 mph - N/A   Overcast
8:56 PM 50.0 °F - 42.8 °F 76% 30.13 in 10.0 mi WNW 13.8 mph - N/A   Overcast
9:16 PM 50.0 °F - 42.8 °F 76% 30.13 in 10.0 mi WNW 15.0 mph 23.0 mph N/A   Overcast
9:36 PM 50.0 °F - 42.8 °F 76% 30.13 in 10.0 mi WNW 16.1 mph - N/A   Overcast
9:56 PM 50.0 °F - 42.8 °F 76% 30.14 in 10.0 mi WNW 15.0 mph 20.7 mph N/A   Overcast
10:16 PM 50.0 °F - 42.8 °F 76% 30.14 in 10.0 mi WNW 16.1 mph - N/A   Overcast
10:36 PM 50.0 °F - 42.8 °F 76% 30.14 in 10.0 mi WNW 16.1 mph 21.9 mph N/A   Overcast
10:56 PM 50.0 °F - 42.8 °F 76% 30.14 in 10.0 mi WNW 15.0 mph 20.7 mph N/A   Overcast
11:16 PM 50.0 °F - 42.8 °F 76% 30.14 in 10.0 mi West 16.1 mph 21.9 mph N/A   Overcast
11:36 PM 50.0 °F - 42.8 °F 76% 30.14 in 10.0 mi West 16.1 mph 21.9 mph N/A   Overcast
11:56 PM 50.0 °F - 42.8 °F 76% 30.15 in 10.0 mi West 17.3 mph - N/A   Overcast